QPF
0.00 0.00 0.00 0.00 0.00 0.00 0.00 0.00 0.00 0.00 0.00 0.00 0.00 0.00 0.00 0.00 0.00 0.00 0.01 0.00 0.00 0.00 0.00 0.00 0.00 0.00 0.01 0.00 0.00 0.00 0.00 0.00 0.00 0.00 0.00 0.00 0.00 0.00 0.00 0.00 0.00 0.00 0.00 0.00
0.00 0.00 0.00 0.00 0.00 0.00 0.00 0.00 0.00 0.00 0.00 0.00 0.00 0.00 0.00 0.00 0.00 0.00 0.01 0.01 0.00 0.00 0.00 0.00 0.00 0.00 0.00 0.00 0.00 0.00 0.00 0.00 0.01 0.01 0.01 0.00 0.00 0.00 0.00 0.00 0.00 0.00 0.00 0.00
0.00 0.00 0.00 0.00 0.00 0.00 0.00 0.00 0.00 0.00 0.00 0.00 0.00 0.00 0.00 0.00 0.00 0.01 0.01 0.01 0.00 0.00 0.00 0.00 0.00 0.00 0.00 0.01 0.00 0.00 0.00 0.01 0.01 0.01 0.01 0.01 0.00 0.00 0.00 0.00 0.00 0.00 0.00 0.00
0.00 0.00 0.00 0.00 0.00 0.00 0.00 0.00 0.00 0.00 0.00 0.00 0.00 0.00 0.00 0.00 0.00 0.01 0.01 0.01 0.01 0.00 0.00 0.00 0.00 0.00 0.00 0.00 0.01 0.01 0.00 0.01 0.01 0.01 0.01 0.01 0.01 0.01 0.00 0.00 0.00 0.00 0.00 0.00
0.01 0.01 0.00 0.00 0.00 0.00 0.00 0.00 0.00 0.00 0.00 0.00 0.00 0.00 0.00 0.00 0.00 0.00 0.01 0.01 0.01 0.01 0.01 0.01 0.01 0.01 0.01 0.01 0.01 0.01 0.00 0.00 0.01 0.01 0.01 0.02 0.02 0.01 0.00 0.00 0.01 0.00 0.00 0.00
0.01 0.01 0.00 0.00 0.00 0.00 0.00 0.00 0.00 0.00 0.00 0.00 0.00 0.00 0.00 0.00 0.00 0.00 0.00 0.00 0.01 0.01 0.01 0.01 0.01 0.01 0.01 0.01 0.01 0.01 0.01 0.01 0.01 0.01 0.01 0.01 0.01 0.01 0.01 0.01 0.01 0.01 0.00 0.00
0.01 0.01 0.01 0.00 0.00 0.00 0.00 0.00 0.00 0.00 0.00 0.00 0.00 0.00 0.00 0.00 0.00 0.00 0.00 0.00 0.00 0.00 0.00 0.01 0.01 0.01 0.01 0.01 0.01 0.01 0.01 0.00 0.00 0.01 0.01 0.00 0.00 0.01 0.02 0.01 0.01 0.01 0.01 0.01
0.01 0.02 0.01 0.01 0.00 0.01 0.01 0.01 0.00 0.01 0.01 0.01 0.01 0.00 0.00 0.00 0.00 0.00 0.00 0.00 0.00 0.00 0.00 0.00 0.00 0.00 0.00 0.00 0.01 0.01 0.00 0.00 0.00 0.01 0.01 0.01 0.00 0.01 0.02 0.01 0.01 0.01 0.01 0.01
0.01 0.01 0.01 0.01 0.01 0.01 0.01 0.00 0.00 0.01 0.01 0.00 0.00 0.00 0.00 0.00 0.00 0.00 0.00 0.00 0.00 0.00 0.00 0.00 0.00 0.00 0.00 0.00 0.00 0.00 0.00 0.00 0.00 0.00 0.01 0.01 0.01 0.01 0.02 0.02 0.01 0.01 0.01 0.01
0.01 0.01 0.00 0.00 0.00 0.00 0.00 0.00 0.00 0.00 0.00 0.00 0.00 0.00 0.00 0.00 0.00 0.00 0.00 0.00 0.00 0.00 0.00 0.00 0.00 0.00 0.00 0.00 0.00 0.00 0.00 0.00 0.00 0.00 0.01 0.01 0.01 0.01 0.02 0.01 0.01 0.01 0.01 0.01
0.00 0.00 0.00 0.00 0.00 0.00 0.00 0.00 0.00 0.00 0.00 0.00 0.00 0.00 0.00 0.00 0.00 0.00 0.00 0.00 0.00 0.00 0.00 0.00 0.00 0.00 0.00 0.00 0.00 0.00 0.00 0.00 0.01 0.01 0.01 0.01 0.01 0.01 0.01 0.01 0.01 0.01 0.01 0.01
0.00 0.00 0.00 0.00 0.00 0.00 0.00 0.00 0.00 0.00 0.00 0.00 0.00 0.00 0.00 0.00 0.00 0.00 0.00 0.00 0.00 0.00 0.00 0.00 0.00 0.00 0.00 0.00 0.00 0.00 0.00 0.00 0.01 0.01 0.01 0.01 0.01 0.01 0.01 0.01 0.01 0.02 0.02 0.01
0.00 0.00 0.00 0.00 0.00 0.00 0.00 0.00 0.00 0.00 0.00 0.00 0.00 0.00 0.00 0.00 0.00 0.00 0.00 0.00 0.00 0.00 0.00 0.00 0.00 0.00 0.00 0.00 0.00 0.00 0.00 0.00 0.00 0.01 0.01 0.01 0.00 0.00 0.01 0.01 0.01 0.01 0.01 0.01
0.00 0.00 0.00 0.00 0.00 0.00 0.00 0.00 0.00 0.00 0.00 0.00 0.00 0.00 0.00 0.00 0.00 0.00 0.00 0.01 0.00 0.00 0.00 0.00 0.00 0.00 0.00 0.00 0.00 0.00 0.00 0.00 0.00 0.00 0.00 0.01 0.01 0.01 0.01 0.01 0.01 0.01 0.01 0.01
0.00 0.00 0.00 0.00 0.00 0.00 0.00 0.00 0.00 0.00 0.00 0.00 0.00 0.00 0.00 0.00 0.00 0.00 0.01 0.01 0.00 0.00 0.00 0.00 0.00 0.00 0.00 0.00 0.00 0.00 0.00 0.00 0.00 0.00 0.00 0.00 0.01 0.01 0.01 0.01 0.01 0.01 0.01 0.01
0.00 0.00 0.00 0.00 0.00 0.00 0.00 0.00 0.00 0.00 0.00 0.00 0.01 0.01 0.01 0.01 0.01 0.01 0.01 0.01 0.00 0.00 0.00 0.00 0.00 0.00 0.00 0.00 0.00 0.00 0.00 0.00 0.00 0.00 0.00 0.00 0.00 0.00 0.01 0.01 0.01 0.01 0.01 0.01
0.01 0.01 0.01 0.01 0.01 0.00 0.00 0.00 0.00 0.01 0.01 0.01 0.01 0.01 0.02 0.02 0.02 0.02 0.01 0.01 0.00 0.01 0.00 0.00 0.00 0.00 0.00 0.00 0.00 0.00 0.00 0.00 0.00 0.00 0.00 0.00 0.00 0.00 0.01 0.01 0.01 0.01 0.01 0.01
0.01 0.01 0.01 0.01 0.01 0.01 0.01 0.01 0.01 0.01 0.01 0.01 0.01 0.01 0.01 0.01 0.01 0.01 0.01 0.01 0.01 0.01 0.01 0.00 0.00 0.00 0.00 0.00 0.00 0.00 0.00 0.00 0.00 0.00 0.00 0.00 0.00 0.00 0.00 0.01 0.01 0.01 0.01 0.01
0.01 0.01 0.01 0.01 0.01 0.01 0.01 0.01 0.01 0.01 0.01 0.01 0.01 0.01 0.01 0.01 0.01 0.01 0.01 0.01 0.01 0.01 0.01 0.00 0.00 0.00 0.00 0.01 0.01 0.00 0.01 0.01 0.01 0.01 0.01 0.01 0.01 0.01 0.01 0.01 0.01 0.01 0.01 0.01
0.00 0.00 0.01 0.01 0.02 0.01 0.01 0.01 0.01 0.01 0.00 0.00 0.01 0.01 0.01 0.01 0.01 0.01 0.01 0.01 0.01 0.01 0.01 0.01 0.01 0.01 0.01 0.01 0.01 0.01 0.01 0.02 0.02 0.02 0.02 0.01 0.01 0.01 0.01 0.01 0.01 0.01 0.01 0.01
0.00 0.00 0.01 0.01 0.01 0.01 0.01 0.00 0.00 0.00 0.00 0.01 0.01 0.01 0.01 0.01 0.01 0.01 0.00 0.00 0.00 0.00 0.00 0.01 0.01 0.01 0.01 0.01 0.01 0.01 0.01 0.01 0.01 0.01 0.01 0.01 0.01 0.01 0.01 0.01 0.01 0.01 0.01 0.01
0.01 0.01 0.01 0.01 0.01 0.01 0.01 0.01 0.01 0.01 0.01 0.01 0.01 0.01 0.01 0.01 0.00 0.00 0.00 0.00 0.00 0.00 0.00 0.00 0.00 0.00 0.01 0.01 0.01 0.01 0.01 0.01 0.01 0.01 0.01 0.01 0.01 0.01 0.01 0.01 0.01 0.01 0.01 0.01
0.01 0.01 0.01 0.01 0.01 0.01 0.01 0.01 0.01 0.01 0.01 0.01 0.01 0.01 0.01 0.00 0.00 0.00 0.00 0.00 0.00 0.00 0.00 0.00 0.00 0.00 0.01 0.01 0.01 0.01 0.01 0.01 0.01 0.01 0.01 0.01 0.01 0.01 0.01 0.01 0.01 0.01 0.01 0.01
0.01 0.01 0.01 0.01 0.01 0.01 0.01 0.01 0.01 0.01 0.01 0.01 0.01 0.00 0.00 0.00 0.00 0.00 0.00 0.00 0.00 0.00 0.00 0.00 0.00 0.00 0.00 0.00 0.01 0.01 0.01 0.00 0.00 0.00 0.01 0.01 0.01 0.01 0.01 0.01 0.01 0.01 0.01 0.01
0.01 0.01 0.01 0.01 0.00 0.00 0.00 0.00 0.00 0.00 0.00 0.00 0.00 0.00 0.00 0.00 0.00 0.00 0.00 0.00 0.00 0.00 0.00 0.00 0.00 0.00 0.00 0.00 0.00 0.00 0.00 0.00 0.00 0.00 0.00 0.00 0.00 0.00 0.00 0.01 0.01 0.01 0.01 0.01
0.01 0.01 0.01 0.01 0.00 0.00 0.00 0.00 0.00 0.00 0.00 0.00 0.00 0.00 0.00 0.00 0.00 0.00 0.00 0.00 0.00 0.00 0.00 0.00 0.00 0.00 0.00 0.00 0.00 0.00 0.00 0.00 0.00 0.00 0.00 0.00 0.00 0.00 0.00 0.00 0.00 0.01 0.01 0.01
0.00 0.00 0.00 0.00 0.00 0.00 0.00 0.00 0.00 0.00 0.00 0.00 0.00 0.00 0.00 0.00 0.00 0.00 0.00 0.00 0.00 0.00 0.00 0.00 0.00 0.00 0.00 0.00 0.00 0.00 0.00 0.00 0.00 0.00 0.00 0.00 0.00 0.00 0.00 0.01 0.01 0.01 0.01 0.01
MSLP
1016.98 1016.65 1016.29 1015.91 1015.51 1015.10 1014.70 1014.30 1013.90 1013.52 1013.16 1012.86 1012.63 1012.50 1012.48 1012.58 1012.81 1013.14 1013.56 1014.05 1014.56 1015.07 1015.55 1015.99 1016.38 1016.73 1017.03 1017.31 1017.57 1017.83 1018.09 1018.36 1018.63 1018.90 1019.17 1019.42 1019.64 1019.84 1019.99 1020.11 1020.19 1020.22 1020.22 1020.18
1017.28 1016.88 1016.41 1015.89 1015.35 1014.81 1014.29 1013.80 1013.37 1012.99 1012.69 1012.46 1012.33 1012.28 1012.34 1012.50 1012.75 1013.09 1013.49 1013.95 1014.44 1014.94 1015.43 1015.89 1016.33 1016.72 1017.07 1017.40 1017.69 1017.97 1018.24 1018.50 1018.76 1019.02 1019.27 1019.50 1019.72 1019.90 1020.05 1020.16 1020.22 1020.23 1020.20 1020.12
1017.58 1017.09 1016.49 1015.82 1015.13 1014.44 1013.80 1013.23 1012.76 1012.38 1012.12 1011.96 1011.90 1011.94 1012.06 1012.27 1012.55 1012.89 1013.29 1013.73 1014.21 1014.70 1015.20 1015.69 1016.16 1016.60 1017.01 1017.38 1017.72 1018.02 1018.31 1018.57 1018.82 1019.07 1019.30 1019.53 1019.73 1019.91 1020.05 1020.14 1020.19 1020.17 1020.11 1019.99
1017.81 1017.20 1016.48 1015.67 1014.83 1014.02 1013.28 1012.64 1012.13 1011.76 1011.53 1011.43 1011.44 1011.55 1011.74 1011.99 1012.30 1012.65 1013.05 1013.48 1013.94 1014.43 1014.93 1015.44 1015.94 1016.42 1016.87 1017.28 1017.65 1017.98 1018.28 1018.55 1018.80 1019.04 1019.26 1019.47 1019.67 1019.84 1019.97 1020.06 1020.08 1020.05 1019.96 1019.81
1017.88 1017.16 1016.32 1015.39 1014.45 1013.55 1012.74 1012.06 1011.54 1011.19 1011.01 1010.97 1011.05 1011.22 1011.47 1011.77 1012.10 1012.46 1012.85 1013.27 1013.72 1014.20 1014.69 1015.20 1015.71 1016.21 1016.68 1017.12 1017.51 1017.85 1018.16 1018.44 1018.69 1018.92 1019.14 1019.35 1019.54 1019.71 1019.84 1019.91 1019.93 1019.88 1019.76 1019.58
1017.74 1016.92 1015.98 1014.99 1013.99 1013.05 1012.22 1011.55 1011.06 1010.75 1010.61 1010.63 1010.78 1011.02 1011.31 1011.65 1012.00 1012.37 1012.76 1013.16 1013.59 1014.04 1014.52 1015.02 1015.52 1016.01 1016.49 1016.92 1017.32 1017.67 1017.98 1018.26 1018.51 1018.75 1018.97 1019.18 1019.37 1019.53 1019.65 1019.72 1019.72 1019.65 1019.51 1019.31
1017.35 1016.46 1015.49 1014.47 1013.47 1012.55 1011.76 1011.14 1010.70 1010.45 1010.38 1010.46 1010.66 1010.95 1011.28 1011.64 1012.01 1012.39 1012.76 1013.15 1013.55 1013.98 1014.43 1014.90 1015.37 1015.85 1016.30 1016.73 1017.12 1017.47 1017.77 1018.05 1018.30 1018.54 1018.76 1018.97 1019.15 1019.31 1019.43 1019.48 1019.47 1019.39 1019.23 1019.00
1016.74 1015.83 1014.86 1013.87 1012.93 1012.09 1011.38 1010.83 1010.47 1010.30 1010.29 1010.42 1010.67 1010.99 1011.34 1011.72 1012.09 1012.46 1012.83 1013.19 1013.57 1013.97 1014.39 1014.82 1015.27 1015.71 1016.14 1016.55 1016.92 1017.26 1017.56 1017.84 1018.09 1018.32 1018.54 1018.74 1018.92 1019.07 1019.17 1019.21 1019.17 1019.07 1018.88 1018.63
1015.96 1015.06 1014.14 1013.24 1012.41 1011.67 1011.07 1010.63 1010.36 1010.25 1010.30 1010.47 1010.74 1011.06 1011.43 1011.80 1012.17 1012.52 1012.88 1013.23 1013.59 1013.96 1014.36 1014.76 1015.18 1015.60 1016.01 1016.39 1016.75 1017.07 1017.37 1017.64 1017.89 1018.11 1018.32 1018.51 1018.67 1018.79 1018.87 1018.88 1018.82 1018.68 1018.47 1018.20
1015.06 1014.22 1013.39 1012.61 1011.90 1011.30 1010.83 1010.49 1010.30 1010.25 1010.33 1010.52 1010.78 1011.10 1011.45 1011.80 1012.16 1012.51 1012.85 1013.19 1013.55 1013.91 1014.29 1014.68 1015.08 1015.48 1015.88 1016.25 1016.60 1016.91 1017.21 1017.47 1017.71 1017.92 1018.11 1018.28 1018.41 1018.49 1018.53 1018.49 1018.40 1018.22 1017.98 1017.68
1014.10 1013.35 1012.64 1012.00 1011.43 1010.96 1010.61 1010.36 1010.24 1010.23 1010.33 1010.50 1010.75 1011.04 1011.36 1011.69 1012.03 1012.37 1012.71 1013.06 1013.41 1013.79 1014.17 1014.56 1014.96 1015.36 1015.74 1016.11 1016.46 1016.77 1017.06 1017.32 1017.54 1017.74 1017.90 1018.03 1018.11 1018.15 1018.13 1018.05 1017.90 1017.69 1017.41 1017.09
1013.13 1012.49 1011.90 1011.39 1010.96 1010.62 1010.36 1010.19 1010.12 1010.13 1010.21 1010.37 1010.58 1010.84 1011.13 1011.44 1011.77 1012.11 1012.46 1012.83 1013.21 1013.60 1014.00 1014.41 1014.82 1015.22 1015.61 1015.98 1016.33 1016.64 1016.92 1017.17 1017.37 1017.54 1017.67 1017.75 1017.78 1017.75 1017.67 1017.53 1017.33 1017.07 1016.76 1016.41
1012.17 1011.63 1011.17 1010.78 1010.47 1010.22 1010.05 1009.93 1009.89 1009.90 1009.98 1010.12 1010.30 1010.53 1010.81 1011.11 1011.44 1011.80 1012.17 1012.57 1012.98 1013.40 1013.82 1014.25 1014.67 1015.08 1015.47 1015.84 1016.18 1016.49 1016.76 1016.99 1017.17 1017.31 1017.39 1017.41 1017.39 1017.29 1017.15 1016.94 1016.68 1016.38 1016.04 1015.67
1011.24 1010.80 1010.44 1010.15 1009.93 1009.76 1009.64 1009.57 1009.55 1009.57 1009.65 1009.77 1009.95 1010.18 1010.45 1010.77 1011.12 1011.51 1011.92 1012.35 1012.79 1013.23 1013.68 1014.11 1014.54 1014.95 1015.33 1015.69 1016.02 1016.31 1016.56 1016.76 1016.91 1017.01 1017.04 1017.02 1016.93 1016.77 1016.56 1016.29 1015.98 1015.64 1015.27 1014.89
1010.35 1009.99 1009.72 1009.50 1009.35 1009.24 1009.17 1009.13 1009.13 1009.17 1009.26 1009.40 1009.60 1009.85 1010.15 1010.51 1010.90 1011.32 1011.77 1012.23 1012.69 1013.15 1013.60 1014.03 1014.44 1014.83 1015.19 1015.52 1015.82 1016.08 1016.29 1016.46 1016.58 1016.64 1016.63 1016.55 1016.40 1016.19 1015.92 1015.61 1015.25 1014.87 1014.47 1014.08
1009.54 1009.25 1009.03 1008.87 1008.76 1008.69 1008.65 1008.65 1008.69 1008.77 1008.90 1009.08 1009.32 1009.62 1009.98 1010.39 1010.83 1011.30 1011.78 1012.26 1012.73 1013.18 1013.61 1014.01 1014.37 1014.72 1015.03 1015.31 1015.57 1015.78 1015.96 1016.09 1016.17 1016.19 1016.14 1016.02 1015.83 1015.57 1015.26 1014.90 1014.51 1014.10 1013.68 1013.28
1008.87 1008.62 1008.43 1008.30 1008.22 1008.18 1008.18 1008.21 1008.29 1008.42 1008.61 1008.86 1009.17 1009.54 1009.97 1010.43 1010.93 1011.43 1011.93 1012.42 1012.87 1013.29 1013.67 1014.02 1014.32 1014.60 1014.85 1015.07 1015.26 1015.43 1015.56 1015.65 1015.70 1015.68 1015.60 1015.45 1015.23 1014.94 1014.60 1014.21 1013.79 1013.36 1012.92 1012.50
1008.39 1008.16 1007.99 1007.87 1007.81 1007.79 1007.81 1007.89 1008.02 1008.21 1008.46 1008.79 1009.18 1009.62 1010.12 1010.64 1011.17 1011.70 1012.20 1012.67 1013.08 1013.45 1013.77 1014.03 1014.26 1014.45 1014.63 1014.78 1014.91 1015.03 1015.12 1015.17 1015.19 1015.15 1015.05 1014.88 1014.64 1014.33 1013.97 1013.56 1013.13 1012.67 1012.22 1011.79
1008.14 1007.93 1007.76 1007.65 1007.60 1007.59 1007.64 1007.75 1007.92 1008.17 1008.49 1008.88 1009.34 1009.85 1010.39 1010.95 1011.50 1012.03 1012.51 1012.93 1013.29 1013.59 1013.82 1014.01 1014.15 1014.26 1014.36 1014.44 1014.52 1014.59 1014.65 1014.68 1014.68 1014.62 1014.51 1014.33 1014.09 1013.77 1013.40 1012.98 1012.53 1012.07 1011.60 1011.15
1008.15 1007.94 1007.78 1007.68 1007.62 1007.62 1007.68 1007.82 1008.02 1008.31 1008.68 1009.12 1009.62 1010.16 1010.73 1011.30 1011.84 1012.34 1012.78 1013.15 1013.44 1013.66 1013.81 1013.91 1013.97 1014.01 1014.05 1014.08 1014.11 1014.15 1014.18 1014.20 1014.19 1014.13 1014.02 1013.84 1013.59 1013.28 1012.91 1012.49 1012.03 1011.56 1011.08 1010.61
1008.37 1008.18 1008.04 1007.93 1007.88 1007.88 1007.95 1008.09 1008.32 1008.62 1009.01 1009.46 1009.97 1010.52 1011.08 1011.62 1012.13 1012.58 1012.97 1013.26 1013.48 1013.62 1013.70 1013.73 1013.73 1013.72 1013.70 1013.70 1013.71 1013.73 1013.75 1013.76 1013.74 1013.69 1013.58 1013.41 1013.17 1012.86 1012.49 1012.07 1011.62 1011.14 1010.65 1010.17
1008.77 1008.61 1008.48 1008.38 1008.33 1008.33 1008.40 1008.53 1008.75 1009.05 1009.43 1009.87 1010.35 1010.87 1011.39 1011.88 1012.33 1012.72 1013.03 1013.26 1013.41 1013.49 1013.51 1013.49 1013.44 1013.39 1013.35 1013.33 1013.33 1013.34 1013.35 1013.36 1013.35 1013.30 1013.19 1013.03 1012.80 1012.50 1012.14 1011.73 1011.28 1010.80 1010.31 1009.82
1009.27 1009.14 1009.03 1008.95 1008.90 1008.90 1008.96 1009.08 1009.28 1009.55 1009.89 1010.29 1010.73 1011.18 1011.64 1012.06 1012.44 1012.76 1013.00 1013.16 1013.25 1013.28 1013.25 1013.20 1013.13 1013.06 1013.01 1012.98 1012.97 1012.98 1012.99 1013.00 1012.99 1012.94 1012.84 1012.68 1012.46 1012.17 1011.82 1011.42 1010.99 1010.53 1010.05 1009.56
1009.80 1009.70 1009.62 1009.55 1009.51 1009.51 1009.55 1009.66 1009.82 1010.05 1010.34 1010.68 1011.05 1011.44 1011.81 1012.16 1012.47 1012.71 1012.89 1012.99 1013.03 1013.02 1012.97 1012.90 1012.82 1012.74 1012.69 1012.65 1012.65 1012.65 1012.66 1012.67 1012.65 1012.60 1012.50 1012.34 1012.12 1011.85 1011.52 1011.14 1010.73 1010.29 1009.82 1009.36
1010.30 1010.24 1010.18 1010.13 1010.09 1010.09 1010.12 1010.19 1010.32 1010.50 1010.74 1011.01 1011.31 1011.62 1011.92 1012.19 1012.43 1012.60 1012.72 1012.78 1012.79 1012.75 1012.69 1012.60 1012.52 1012.45 1012.39 1012.35 1012.34 1012.34 1012.34 1012.33 1012.30 1012.24 1012.14 1011.98 1011.77 1011.51 1011.20 1010.85 1010.47 1010.06 1009.63 1009.18
1010.75 1010.72 1010.67 1010.63 1010.60 1010.58 1010.59 1010.64 1010.73 1010.87 1011.04 1011.25 1011.49 1011.72 1011.95 1012.16 1012.33 1012.45 1012.53 1012.56 1012.54 1012.49 1012.41 1012.32 1012.24 1012.16 1012.10 1012.06 1012.03 1012.02 1012.01 1011.98 1011.94 1011.87 1011.76 1011.60 1011.40 1011.16 1010.87 1010.55 1010.20 1009.82 1009.43 1009.02
1011.17 1011.14 1011.09 1011.05 1011.00 1010.97 1010.96 1010.97 1011.03 1011.12 1011.24 1011.39 1011.56 1011.74 1011.91 1012.06 1012.18 1012.26 1012.30 1012.31 1012.27 1012.21 1012.13 1012.04 1011.95 1011.87 1011.81 1011.76 1011.72 1011.69 1011.65 1011.62 1011.56 1011.48 1011.36 1011.21 1011.02 1010.79 1010.53 1010.24 1009.92 1009.58 1009.22 1008.84
Thickness
5531 5535 5534 5535 5538 5536 5531 5530 5530 5542 5546 5559 5560 5559 5559 5558 5556 5554 5553 5551 5549 5546 5542 5540 5537 5535 5533 5531 5528 5526 5522 5519 5516 5513 5510 5507 5504 5501 5499 5496 5493 5490 5487 5485
5527 5533 5530 5532 5537 5534 5534 5535 5535 5540 5547 5558 5554 5552 5551 5550 5548 5548 5547 5545 5543 5540 5536 5533 5530 5528 5525 5523 5520 5517 5513 5510 5506 5503 5500 5496 5494 5491 5488 5485 5482 5479 5476 5474
5513 5520 5526 5532 5544 5540 5535 5536 5538 5539 5549 5549 5548 5546 5545 5543 5543 5541 5540 5538 5536 5533 5530 5527 5523 5521 5518 5515 5511 5507 5504 5500 5497 5493 5490 5487 5484 5480 5477 5474 5471 5468 5464 5461
5499 5511 5518 5543 5546 5542 5538 5538 5534 5536 5539 5540 5539 5537 5536 5535 5532 5531 5531 5530 5527 5524 5521 5519 5515 5512 5509 5505 5501 5497 5494 5490 5487 5483 5479 5476 5472 5469 5465 5462 5459 5456 5453 5449
5490 5494 5511 5530 5538 5535 5530 5529 5529 5528 5529 5527 5526 5526 5525 5526 5525 5524 5522 5521 5518 5516 5513 5509 5506 5502 5498 5494 5490 5486 5483 5480 5476 5473 5469 5465 5461 5458 5454 5451 5447 5444 5442 5438
5485 5494 5506 5526 5529 5528 5524 5518 5522 5518 5515 5513 5513 5508 5512 5516 5514 5513 5511 5509 5507 5504 5501 5498 5495 5491 5487 5483 5479 5476 5473 5470 5466 5462 5458 5455 5451 5448 5444 5440 5437 5434 5430 5427
5478 5482 5496 5513 5515 5517 5509 5510 5510 5508 5506 5503 5500 5499 5501 5501 5501 5501 5500 5498 5496 5493 5490 5487 5484 5480 5476 5472 5470 5467 5464 5460 5456 5452 5448 5445 5440 5437 5433 5429 5426 5422 5419 5417
5467 5471 5489 5506 5502 5499 5499 5498 5498 5497 5495 5493 5490 5490 5490 5490 5489 5488 5486 5485 5483 5480 5478 5475 5472 5469 5466 5462 5461 5457 5453 5449 5445 5441 5437 5434 5429 5425 5421 5417 5413 5410 5406 5404
5474 5486 5492 5490 5490 5490 5486 5485 5486 5484 5484 5482 5480 5479 5479 5479 5477 5475 5474 5472 5471 5468 5465 5463 5460 5457 5454 5453 5449 5445 5440 5436 5433 5429 5425 5422 5417 5413 5409 5404 5401 5397 5394 5392
5463 5473 5476 5476 5475 5476 5475 5474 5475 5473 5472 5471 5469 5469 5467 5466 5465 5463 5462 5460 5458 5455 5453 5451 5448 5445 5444 5441 5438 5433 5429 5425 5421 5417 5414 5410 5406 5402 5398 5393 5389 5386 5382 5380
5452 5459 5461 5466 5464 5464 5464 5463 5462 5461 5460 5459 5458 5457 5455 5453 5452 5451 5450 5447 5445 5443 5441 5440 5437 5434 5432 5430 5426 5422 5418 5414 5410 5406 5403 5399 5396 5392 5389 5385 5380 5376 5373 5369
5447 5451 5447 5452 5453 5451 5449 5450 5449 5448 5448 5447 5445 5444 5443 5441 5440 5438 5437 5435 5433 5431 5429 5427 5425 5423 5421 5418 5415 5410 5406 5402 5398 5395 5391 5388 5384 5382 5380 5376 5372 5368 5364 5360
5440 5441 5438 5440 5439 5437 5436 5436 5435 5434 5433 5432 5432 5431 5430 5429 5427 5426 5424 5422 5421 5419 5417 5415 5413 5411 5409 5407 5403 5399 5395 5392 5387 5384 5380 5376 5373 5369 5367 5365 5361 5357 5353 5350
5424 5423 5423 5425 5424 5424 5422 5422 5421 5421 5420 5418 5418 5417 5415 5414 5413 5412 5410 5409 5408 5406 5405 5403 5401 5399 5397 5395 5391 5388 5384 5381 5377 5373 5369 5365 5361 5358 5354 5351 5348 5346 5343 5338
5410 5408 5409 5411 5410 5410 5408 5407 5406 5405 5405 5404 5403 5402 5401 5400 5399 5399 5397 5396 5394 5393 5391 5389 5388 5386 5385 5382 5379 5376 5372 5368 5365 5361 5357 5353 5349 5345 5341 5338 5335 5334 5331 5328
5396 5395 5395 5394 5395 5394 5394 5393 5392 5392 5392 5391 5390 5389 5388 5387 5386 5384 5383 5381 5380 5379 5378 5376 5375 5374 5372 5370 5367 5364 5360 5358 5354 5349 5345 5341 5337 5334 5330 5327 5324 5322 5320 5317
5379 5380 5380 5380 5380 5380 5380 5380 5379 5379 5378 5378 5378 5377 5375 5373 5371 5370 5369 5368 5367 5366 5365 5363 5362 5362 5360 5358 5355 5352 5348 5346 5343 5339 5334 5331 5327 5323 5320 5317 5314 5312 5310 5307
5367 5368 5367 5367 5367 5367 5367 5367 5367 5367 5366 5366 5365 5363 5361 5360 5359 5357 5356 5355 5354 5353 5352 5351 5350 5349 5348 5345 5343 5340 5337 5334 5330 5327 5324 5320 5317 5313 5310 5307 5305 5303 5301 5298
5355 5355 5355 5356 5356 5356 5355 5355 5354 5354 5353 5352 5351 5350 5349 5347 5346 5344 5343 5342 5341 5340 5341 5340 5339 5337 5335 5334 5332 5329 5325 5322 5320 5316 5313 5311 5308 5304 5300 5298 5295 5293 5291 5288
5342 5343 5343 5343 5343 5343 5342 5342 5341 5340 5340 5339 5338 5336 5335 5334 5333 5332 5330 5329 5329 5329 5329 5328 5327 5326 5325 5323 5321 5318 5315 5312 5309 5306 5303 5300 5297 5294 5292 5289 5287 5284 5281 5278
5329 5330 5330 5330 5330 5330 5329 5328 5328 5328 5327 5327 5325 5324 5324 5323 5322 5320 5318 5319 5320 5319 5318 5318 5317 5315 5314 5313 5311 5308 5305 5302 5299 5296 5293 5290 5288 5285 5283 5281 5278 5275 5272 5270
5316 5317 5318 5317 5317 5317 5317 5316 5316 5316 5315 5315 5314 5313 5312 5312 5311 5310 5309 5309 5310 5310 5308 5307 5306 5306 5305 5304 5300 5297 5294 5291 5288 5286 5283 5280 5278 5276 5274 5272 5269 5267 5264 5262
5305 5305 5305 5305 5305 5305 5305 5305 5304 5304 5304 5304 5304 5303 5302 5302 5301 5300 5301 5300 5299 5300 5299 5297 5297 5297 5296 5293 5290 5287 5284 5281 5278 5276 5274 5272 5269 5267 5265 5263 5261 5258 5256 5254
5294 5294 5294 5293 5293 5293 5293 5294 5293 5293 5293 5293 5293 5292 5292 5291 5291 5290 5290 5290 5290 5290 5289 5288 5288 5287 5285 5281 5278 5275 5273 5270 5268 5266 5264 5263 5261 5258 5256 5254 5252 5251 5249 5247
5283 5282 5282 5282 5282 5283 5283 5283 5283 5283 5283 5283 5283 5283 5282 5281 5281 5281 5280 5279 5280 5280 5278 5277 5277 5276 5273 5270 5268 5265 5263 5261 5259 5258 5256 5254 5252 5250 5248 5247 5245 5244 5243 5242
5272 5272 5272 5272 5272 5272 5271 5271 5271 5272 5273 5273 5274 5273 5272 5272 5271 5271 5270 5270 5269 5269 5268 5266 5265 5264 5262 5260 5258 5256 5255 5253 5251 5250 5248 5246 5245 5243 5242 5241 5240 5239 5238 5238
5261 5262 5261 5262 5261 5261 5260 5260 5260 5261 5262 5262 5262 5263 5262 5261 5261 5261 5260 5260 5259 5258 5257 5256 5255 5254 5253 5251 5250 5248 5247 5245 5244 5242 5241 5240 5239 5238 5237 5236 5236 5235 5235 5234